Regional Weather Roundup
Issued by NWS

Home | Current Version | Previous Version | Graphics & Text | Print | Product List | Glossary On
Versions: 1 2 3 4 5 6 7 8 9 10 11 12 13 14 15 16 17 18 19 20 21 22 23 24 25 26 27 28 29 30 31 32 33 34 35 36 37 38 39 40 41 42 43 44 45 46 47 48 49 50
000
ASUS43 KLOT 241403
RWRIL

ILLINOIS REGIONAL WEATHER ROUNDUP
NATIONAL WEATHER SERVICE CHICAGO/ROMEOVILLE IL
800 AM CST FRI FEB 24 2017

NOTE: "FAIR" INDICATES FEW OR NO CLOUDS BELOW 12,000 FEET WITH NO
SIGNIFICANT WEATHER AND/OR OBSTRUCTIONS TO VISIBILITY.

* THESE STATIONS ARE NOT UNDER NWS QUALITY CONTROL. THEY ALSO MAY NOT
  REPORT WEATHER SUCH AS PRECIPITATION OR FOG.

ILZ001-002-007-009-015-016-024-241500-
NORTHWEST ILLINOIS

CITY           SKY/WX    TMP DP  RH WIND       PRES   REMARKS
MOLINE         CLOUDY    42  38  85 NE12      29.44R FOG
STERLING*      CLOUDY    39  38  96 NE10      29.45S WCI  32
$$

ILZ003-004-008-010-011-017-018-241500-
NORTH CENTRAL ILLINOIS

CITY           SKY/WX    TMP DP  RH WIND       PRES   REMARKS
ROCKFORD       DRIZZLE   38  35  89 NE14      29.51R WCI  30
FREEPORT*      CLOUDY    35  34  97 NE18      29.51R FOG     WCI  24
ROCHELLE*      CLOUDY    38  37  97 NE15      29.47S WCI  29
DE KALB*       CLOUDY    38  37  98 NE14      29.48R WCI  30
PERU*          CLOUDY    42  41  95 NE10      29.45R FOG
$$

ILZ005-006-012>014-019>023-241500-
NORTHEAST ILLINOIS

CITY           SKY/WX    TMP DP  RH WIND       PRES   REMARKS
CHICAGO-OHARE  CLOUDY    39  37  92 N15       29.49R FOG     WCI  31
CHICAGO-MIDWAY CLOUDY    42  39  89 N10       29.48F
AURORA         CLOUDY    41  39  93 NE15      29.47R
LANSING*       CLOUDY    44  44 100 N6        29.48S FOG
JOLIET*        CLOUDY    45  44  97 NE7       29.47R FOG
WAUKEGAN       CLOUDY    36  35  96 NE14G22   29.51R WCI  27
DUPAGE AIRPORT CLOUDY    39  37  92 NE10      29.48R WCI  32
KANKAKEE*      MOSUNNY   59  56  91 S15G21    29.46R
WHEELING       CLOUDY    37  36  96 N12       29.51R WCI  29
MORRIS*        CLOUDY    44  43  97 NE6       29.45R FOG
ROMEOVILLE*    CLOUDY    42  42 100 NE8       29.47R FOG
NORTHERLY ISL    N/A     41  39  93 MISG        N/A
$$

LMZ740>746-241500-
SOUTHERN LAKE MICHIGAN

STATION/POSITION SKY/WX   TEMP    WIND        PRES    VSBY  WAVE
                          AIR SEA DIR/SP/G                  HT/PER
                          (F)     (DEG/KT/KT) (MB)    (MI)  (FT/S)
HARRISON CRIB              38     330/ 15/ 17   N/A
BURNHAM HARBOR             41     340/  5/ 11   N/A
CALUMET HARBOR             42     330/  4/  7  998.1R
BURNS HARBOR               38     290/  8/ 14  999.3R
MICHIGAN CITY              57     200/ 18/ 20   N/A
$$

ILZ025>027-034>036-040-047-049-050-058-095>099-241500-
WEST-CENTRAL ILLINOIS

CITY           SKY/WX    TMP DP  RH WIND       PRES   REMARKS
QUINCY         FOG       46  46 100 W12       29.46R VSB<1/4
GALESBURG*     CLOUDY    42  42 100 NE8       29.41R FOG
MACOMB*        CLOUDY    46  46  99 N3        29.43R FOG
JACKSONVILLE*  CLOUDY    58  54  85 S14       29.43R
PITTSFIELD*    PTSUNNY   59  55  86 SW10      29.44R
$$

ILZ028>032-037-038-041>044-048-051>054-059>061-241500-
CENTRAL ILLINOIS

CITY           SKY/WX    TMP DP  RH WIND       PRES   REMARKS
PONTIAC        MOSUNNY   60  58  94 S17       29.44R
BLOOMINGTON    MOSUNNY   59  56  89 S23       29.43S
DECATUR        CLOUDY    60  55  83 S15       29.47R
PEORIA         CLOUDY    58  55  90 SW6       29.42R
LACON*         CLOUDY    45  45 100 N6        29.43R FOG
LINCOLN*       SUNNY     60  57  90 S20       29.43S
SPRINGFIELD    MOSUNNY   61  55  81 S20       29.44R
TAYLORVILLE    MOSUNNY   60  56  85 S21G26    29.47R
$$

ILZ033-039-045-046-055>057-062-063-241500-
EAST-CENTRAL ILLINOIS

CITY           SKY/WX    TMP DP  RH WIND       PRES   REMARKS
CHAMPAIGN      MOSUNNY   60  55  83 S21       29.48R
RANTOUL*       MOSUNNY   62  58  86 S20G26    29.48R
MATTOON        MOSUNNY   60  57  89 S14       29.51R
PARIS*         MOSUNNY   62  57  84 S23G30    29.54R
$$

ILZ079-100>102-241500-
SOUTHWEST ILLINOIS

CITY           SKY/WX    TMP DP  RH WIND       PRES   REMARKS
ALTON          PTSUNNY   61  54  77 S17       29.48R
BELLEVILLE     PTSUNNY   61  59  92 VRB6      29.50R
CAHOKIA*       CLOUDY    63  54  72 S8        29.49R
SPARTA*        CLOUDY    60  55  83 S17G25    29.54R
$$

ILZ064>066-069>071-074>076-080>082-084>086-088>090-092>094-241500-
SOUTH-CENTRAL ILLINOIS

CITY           SKY/WX    TMP DP  RH WIND       PRES   REMARKS
CARBONDALE     MOSUNNY   63  56  78 S28G35    29.55R
CAIRO*         CLOUDY    62  56  82 S12G20    29.61R
EFFINGHAM*     MOSUNNY   63  57  80 S13G21    29.53S
MARION         MOSUNNY   64  59  82 S14G22    29.59R
MT. VERNON     MOSUNNY   63  56  78 S20       29.55R
CENTRALIA*     PTSUNNY   64  56  76 S25       29.52R
SALEM*         MOSUNNY   65  55  69 S22G28    29.52S
METROPOLIS*    PTSUNNY   64  56  75 S10G21    29.62S
$$

ILZ067-068-072-073-078-083-087-091-241500-
SOUTHEAST ILLINOIS

CITY           SKY/WX    TMP DP  RH WIND       PRES   REMARKS
LAWRENCEVILLE  SUNNY     63  57  81 S18       29.58R
FLORA*         SUNNY     64  57  78 S14       29.55S
FAIRFIELD*     PTSUNNY   64  57  77 S10       29.56R
HARRISBURG*    PTSUNNY   65  56  74 S20G28    29.58S
ROBINSON*      SUNNY     62  56  81 S18G24    29.57R
CARMI*         MOSUNNY   63  57  81 S18       29.59R
$$

ABBREVIATIONS USED IN REMARKS
   TC - TEMPERATURE IN CELSIUS
  WCI - WIND CHILL INDEX
   HX - HEAT INDEX
  VSB - VISIBILITY
$$




USA.gov is the U.S. government's official web portal to all federal, state and local government web resources and services.